{"data":{"norad_id":65123,"intl_designator":"2025-170E","name":"GEESAT-4 05","alt_names":[],"object_type":"PAYLOAD","status":"ACTIVE","operator":null,"country":"PRC","launch_date":"2025-08-08","launch_site_code":"YSLA","launch_vehicle":null,"mission":null,"orbit_class":"UNKNOWN","rcs_meters":null,"size_class":null,"mass_kg":null,"dimensions":null,"purposes":[],"wikipedia_slug":null,"has_3d_model":false,"image_url":null,"decayed_at":null,"tle_current":{"epoch":"2026-09-21T21:55:53.476896Z","epoch_age_seconds":43062,"freshness":"FRESH","line1":"1 65123U 25170E   26264.91381339  .00000886  00000+0  13716-3 0  9991","line2":"2 65123  49.9958  41.2528 0007494 331.0806  28.9716 14.82400545 61395","mean_motion":14.82400545,"eccentricity":0.0007494,"inclination_deg":49.9958,"raan_deg":41.2528,"arg_perigee_deg":331.0806,"mean_anomaly_deg":28.9716,"bstar":0.00013716,"rev_number":6139,"period_min":97.13973762739,"perigee_km":616.51128747578,"apogee_km":627.00272861504,"semimajor_km":6999.8940080454,"source":"CELESTRAK","updated_at":"2026-09-22T09:00:30.143619Z"}}}